Location: Unspecified
(51.8358°N, 0.0000°E)
Time: 13:58:19
(UTC+00:00)

SL-16 DEB - Visible Passes

Search period start: 04 April 2026 00:00
Search period end: 14 April 2026 00:00
Orbit: 814 x 1001 km, 71.2° (Epoch: 26 March)

Date Brightness Start Highest point End Pass type
(mag) Time Alt. Az. Time Alt. Az. Time Alt. Az.
4 Apr ? 19:23:38 10° NNW 19:28:15 20° NNE 19:32:50 10° ENE visible
4 Apr ? 21:08:59 10° NNW 21:15:21 52° NE 21:17:27 38° ESE visible
4 Apr ? 22:54:45 10° NW 23:00:40 41° WSW 23:00:40 41° WSW visible
5 Apr ? 19:28:28 10° NNW 19:33:26 22° NNE 19:38:20 10° E visible
5 Apr ? 21:13:47 10° NNW 21:20:17 64° NE 21:22:19 43° ESE visible
5 Apr ? 22:59:47 10° NW 23:05:24 32° WSW 23:05:31 32° WSW visible
6 Apr ? 19:33:15 10° NNW 19:38:34 25° NE 19:43:48 10° E visible
6 Apr ? 21:18:36 10° NNW 21:25:09 78° ENE 21:27:12 46° SE visible
6 Apr ? 23:04:54 10° NW 23:10:01 25° W 23:10:25 25° WSW visible
7 Apr ? 19:38:03 10° NNW 19:43:40 29° NE 19:48:55 11° E visible
7 Apr ? 21:23:26 10° NNW 21:29:59 86° WSW 21:32:07 45° SSE visible
7 Apr ? 23:10:10 10° NW 23:14:34 20° W 23:15:20 19° WSW visible
8 Apr ? 19:42:50 10° NNW 19:48:44 34° NE 19:53:51 13° ESE visible
8 Apr ? 21:28:18 10° NNW 21:34:46 70° WSW 21:37:04 41° S visible
8 Apr ? 23:15:42 10° WNW 23:19:05 15° W 23:20:16 14° WSW visible
9 Apr ? 19:47:37 10° NNW 19:53:45 41° NE 19:58:49 14° ESE visible
9 Apr ? 21:33:12 10° NW 21:39:31 55° WSW 21:42:02 34° S visible
9 Apr ? 23:22:01 10° WNW 23:23:33 11° W 23:25:04 10° WSW visible
10 Apr ? 19:52:25 10° NNW 19:58:43 49° NE 20:03:50 15° ESE visible
10 Apr ? 21:38:08 10° NW 21:44:13 44° WSW 21:47:03 28° SSW visible
11 Apr ? 19:57:13 10° NNW 20:03:39 60° NE 20:08:53 15° SE visible
11 Apr ? 21:43:09 10° NW 21:48:52 34° WSW 21:52:06 21° SSW visible
12 Apr ? 20:02:01 10° NNW 20:08:33 73° ENE 20:13:58 14° SE visible
12 Apr ? 21:48:13 10° NW 21:53:28 27° W 21:57:11 16° SSW visible
13 Apr ? 20:06:51 10° NNW 20:13:22 89° NE 20:19:06 13° SSE visible
13 Apr ? 21:53:27 10° NW 21:58:02 21° W 22:02:19 11° SW visible
